Location: Tucson
(32.2217°N, 110.9265°W)
Time: 03:24:57
(UTC-07:00)

Oscar 11 - Pass Details

Date: 02 December 2021
Orbit: 611 x 625 km, 97.6° (Epoch: 19 January)

Event Time Altitude Azimuth Distance (km) Brightness Sun altitude
Rises 17:56:51 0° 199° (SSW) 2,884 11.1 -8.3°
Reaches altitude 10° 17:59:29 10° 216° (SW) 1,985 10.6 -8.8°
Maximum altitude 18:02:43 21° 265° (W) 1,422 10.0 -9.4°
Drops below altitude 10° 18:05:59 10° 314° (NW) 1,998 10.0 -10.1°
Sets 18:08:40 0° 330° (NNW) 2,910 10.6 -10.6°
